User: anonymous   Login
Location: Pine Mountain Observatory
(43.7910°N, 120.9377°W)
Time: 11:59:16
(UTC-07:00)
Language:

Cosmos 1076 Rocket - Orbit

View from above orbital plane
View from above orbital plane
View from above satellite
View from above satellite

Ground track
Ground track

The orbit data is extracted from the following two-line orbital elements,

1 11267U 79011B   15245.19751415  .00000194  00000-0  18166-4 0  9995
2 11267  82.5258 126.8291 0015561 242.0854 117.8789 14.88619520978167
Epoch (UTC): 02 September 2015 04:44:25
Eccentricity: 0.0015561
inclination: 82.5258°
perigee height: 591 km
apogee height: 613 km
right ascension of ascending node: 126.8291°
argument of perigee: 242.0854°
revolutions per day: 14.88619520
mean anomaly at epoch: 117.8789°
orbit number at epoch: 97816

The dashed part of the orbit path shows where the satellite is in the earth's shadow,  

DLR